Regional Weather Roundup
Issued by NWS State College, PA

Home | Current Version | Previous Version | Graphics & Text | Print | Product List | Glossary Off
Versions: 1 2 3 4 5 6 7 8 9 10 11 12 13 14 15 16 17 18 19 20 21 22 23 24 25 26 27 28 29 30 31 32 33 34 35 36 37 38 39 40 41 42 43 44 45 46 47 48 49 50

000
ASUS41 KCTP 241010
RWRCTP

REGIONAL WEATHER ROUNDUP
NATIONAL WEATHER SERVICE STATE COLLEGE PA
600 AM EDT THU APR 24 2014

Note: "fair" indicates few or no clouds below 12,000 feet with no
significant weather and/or obstructions to visibility.

* = STATION THAT DOES NOT REPORT PRECIPITATION /E.G. RAIN...SNOW...ETC/
    THUNDER OR FOG.

PAZ002>004-007>009-013>016-020>023-029>032-241100-
WESTERN PENNSYLVANIA

CITY           SKY/WX    TMP DP  RH WIND       PRES   REMARKS
ERIE           CLEAR     29  24  82 CALM      30.14R
MEADVILLE      CLEAR     29  21  72 NW3       30.10R
FRANKLIN*      CLEAR     27  16  63 CALM      30.12R
NEW CASTLE     FAIR      28  20  72 CALM      30.15R
BEAVER COUNTY  NOT AVBL
BUTLER*        CLEAR     27  14  59 W3        30.13R
PITTSBURGH INT PTCLDY    30  19  63 W3        30.12R
PITTSBURGH     CLEAR     34  15  46 N6        30.11R
INDIANA*       CLEAR     27  21  80 CALM      30.10R
LATROBE        CLEAR     28  19  69 CALM      30.13R
WASHINGTON CO* CLEAR     27  19  74 CALM      30.13R
$$

PAZ004>006-010>012-017>019-024>028-033>037-041-042-045-046-049>053-241100-
CENTRAL PENNSYLVANIA

CITY           SKY/WX    TMP DP  RH WIND       PRES   REMARKS
BRADFORD       CLEAR     27  17  66 N6        30.04R
DUBOIS         CLEAR     28  21  75 W6        30.06R
CLEARFIELD     CLEAR     30  22  72 NW5       30.07R
JOHNSTOWN      CLEAR     28  16  60 W3        30.04R
ALTOONA        CLEAR     32  21  64 W7        30.07R
STATE COLLEGE  CLEAR     36  18  48 NW5       30.05R
WILLIAMSPORT   CLEAR     37  16  42 W9        30.03R
SELINSGROVE    CLEAR     30  22  72 NW7       30.03R
FT INDIANTOWN  CLEAR     41  15  34 W9        30.01R
CAPITAL CITY   CLEAR     42  18  37 NW7       30.03R
HARRISBURG     CLEAR     42  17  36 NW9       30.03R
YORK           CLEAR     36  24  62 NW7       30.03R
$$

PAZ038>040-043-044-047-048-054-055-060>062-067>071-241100-
EASTERN PENNSYLVANIA

CITY           SKY/WX    TMP DP  RH WIND       PRES   REMARKS
SCRANTON       CLEAR     34  18  52 W8        29.96R
MOUNT POCONO   CLEAR     32  17  54 NW14G22   29.87R
ALLENTOWN      CLEAR     40  17  39 NW10      29.96R
QUAKERTOWN*    SUNNY     39  18  41 W7        29.96R
READING        CLEAR     39  17  41 W8        29.99R
LANCASTER      CLEAR     36  19  50 W8        30.01R
COATESVILLE    SUNNY     36  19  51 NW12      29.99R
POTTSTOWN      CLEAR     38  20  48 W6        29.99R
BLUE BELL      CLEAR     41  23  48 CALM      29.96R
DOYLESTOWN     CLEAR     38  19  46 W9        29.94R
WILLOW GROVE   NOT AVBL
NORTH PHILA    CLEAR     43  19  38 NW7       29.97R
PHILADELPHIA   CLEAR     45  18  34 W12       29.98R
$$



USA.gov is the U.S. government's official web portal to all federal, state and local government web resources and services.